DW7628 Caltanissetta IT current weather conditions

sailwx.info

Wind from 060 at 1 knots gusting 7

Air temperature 30.6° C
Dewpoint 9.4° C

Last reported at 2019-Jun-19 12:09 UTC.
Time now 2019-Jun-19 13:03 UTC

Location: N 37°30' E 014°03'.
View on Google Maps.

See reports from other nearby stations

  
Tides and Currents Weather Stations Pressure Air Temp Water Temp Dewpoint Dewpoint Depression Visibility Wind Speed Wind Dir Waves Ship Positions
date/time (UTC)wind fromknots sea level pressurealtimeterstation pressurevisibilityair tempwater tempwave heightnotes
2019-Jun-19 12:09 060 1 gusting 7 30.6
2019-Jun-19 11:59 089 31.1
2019-Jun-19 11:49 141 31.1
2019-Jun-19 11:39 144 0 gusting 10 31.1
2019-Jun-19 11:29 127 30.0
2019-Jun-19 11:19 037 30.0
2019-Jun-19 11:09 034 29.4
2019-Jun-19 10:59 034 28.9
2019-Jun-19 10:49 034 0 gusting 6 29.4
2019-Jun-19 10:39 028 28.9
2019-Jun-19 10:29 028 28.3
2019-Jun-19 10:19 027 5 gusting 7 28.3
2019-Jun-19 10:09 058 28.3
2019-Jun-19 09:59 058 27.8
2019-Jun-19 09:49 083 27.8
2019-Jun-19 09:39 084 27.8
2019-Jun-19 09:29 084 27.8
2019-Jun-19 09:19 083 26.7
2019-Jun-19 09:09 062 26.7
2019-Jun-19 08:59 063 26.7
2019-Jun-19 08:49 062 26.1
2019-Jun-19 08:39 059 25.0
2019-Jun-19 08:29 060 25.6
2019-Jun-19 08:19 060 25.0
2019-Jun-19 08:09 040 25.6
2019-Jun-19 07:59 040 25.0
2019-Jun-19 07:49 041 24.4
2019-Jun-19 07:39 041 0 gusting 5 23.3
2019-Jun-19 07:29 041 3 gusting 6 23.3
2019-Jun-19 07:19 047 23.3
2019-Jun-19 07:09 047 0 gusting 5 23.3
2019-Jun-19 06:59 048 22.8
2019-Jun-19 06:49 049 23.3
2019-Jun-19 06:39 049 22.8
2019-Jun-19 06:29 049 22.8
2019-Jun-19 06:19 049 22.2
2019-Jun-19 06:09 049 21.7
2019-Jun-19 05:59 049 21.7
2019-Jun-19 05:49 049 21.1
2019-Jun-19 05:39 049 21.1
2019-Jun-19 05:29 049 21.1
2019-Jun-19 05:19 049 21.1
2019-Jun-19 05:09 049 20.6
2019-Jun-19 04:59 049 20.6
2019-Jun-19 04:49 049 20.0
2019-Jun-19 04:39 049 20.0
2019-Jun-19 04:29 032 20.0
2019-Jun-19 04:19 032 20.0
2019-Jun-19 04:09 032 19.4
2019-Jun-19 03:59 032 19.4
2019-Jun-19 03:49 032 19.4
2019-Jun-19 03:39 032 19.4
2019-Jun-19 03:29 032 19.4
2019-Jun-19 03:19 032 19.4
2019-Jun-19 03:09 032 19.4
2019-Jun-19 02:59 032 19.4
2019-Jun-19 02:49 032 19.4
2019-Jun-19 02:39 032 19.4
2019-Jun-19 02:29 032 20.0
2019-Jun-19 02:19 032 20.0
2019-Jun-19 02:09 032 20.0
2019-Jun-19 01:59 032 20.0
2019-Jun-19 01:49 032 20.0
2019-Jun-19 01:39 032 20.0
2019-Jun-19 01:29 032 20.6
2019-Jun-19 01:19 032 20.6
2019-Jun-19 01:09 032 20.6
2019-Jun-19 00:59 032 20.6
2019-Jun-19 00:49 032 20.6
2019-Jun-19 00:39 032 20.6
2019-Jun-19 00:29 032 20.6
2019-Jun-19 00:19 032 20.6
2019-Jun-19 00:09 032 20.6
2019-Jun-18 23:59 032 20.6
2019-Jun-18 23:49 032 20.6
2019-Jun-18 23:39 032 20.6
2019-Jun-18 23:29 032 20.6
2019-Jun-18 23:19 032 20.6
2019-Jun-18 23:09 033 20.6
2019-Jun-18 22:59 032 20.6
2019-Jun-18 22:49 030 20.6
2019-Jun-18 22:39 030 20.6
2019-Jun-18 22:29 030 0 gusting 6 21.1
2019-Jun-18 22:19 027 1 gusting 5 21.1
2019-Jun-18 22:10 030 21.1
2019-Jun-18 21:59 030 21.1
2019-Jun-18 21:49 030 21.1
2019-Jun-18 21:39 031 21.1
2019-Jun-18 21:09 030 21.7
2019-Jun-18 20:59 032 1 gusting 7 21.7
2019-Jun-18 20:49 031 0 gusting 11 21.7
2019-Jun-18 20:39 026 2 gusting 7 22.2
2019-Jun-18 20:29 018 6 gusting 8 22.2
2019-Jun-18 20:19 026 1 gusting 6 22.8
2019-Jun-18 20:09 034 22.8
2019-Jun-18 19:59 034 22.8
2019-Jun-18 19:49 034 22.8
2019-Jun-18 19:39 034 22.8
2019-Jun-18 19:29 034 22.8
2019-Jun-18 19:19 034 23.3
2019-Jun-18 19:09 034 23.3
2019-Jun-18 18:59 037 23.9
2019-Jun-18 18:49 040 23.9
2019-Jun-18 18:39 035 24.4
2019-Jun-18 18:29 036 0 gusting 6 24.4
2019-Jun-18 18:19 032 1 gusting 6 25.6
2019-Jun-18 18:09 148 26.7
2019-Jun-18 17:59 150 26.7
2019-Jun-18 17:49 150 26.7
2019-Jun-18 17:39 149 27.2
2019-Jun-18 17:29 149 27.2
2019-Jun-18 17:19 149 0 gusting 6 27.8
2019-Jun-18 17:09 149 28.3
2019-Jun-18 16:59 149 28.3
2019-Jun-18 16:49 148 28.9
2019-Jun-18 16:39 148 28.9
2019-Jun-18 16:29 148 28.3
2019-Jun-18 16:19 148 0 gusting 6 28.3
2019-Jun-18 16:09 148 0 gusting 5 28.9
2019-Jun-18 15:59 163 28.3
2019-Jun-18 15:49 162 0 gusting 4 28.9
2019-Jun-18 15:39 160 28.3
2019-Jun-18 15:29 165 0 gusting 6 28.3
2019-Jun-18 15:19 124 28.9
2019-Jun-18 15:09 146 28.3
2019-Jun-18 14:59 151 0 gusting 6 28.3
2019-Jun-18 14:49 146 0 gusting 10 28.3
2019-Jun-18 14:39 179 1 gusting 11 28.9
2019-Jun-18 14:29 172 0 gusting 13 28.9
2019-Jun-18 14:19 177 2 gusting 10 28.3
2019-Jun-18 14:09 165 28.3
2019-Jun-18 13:59 169 28.3
2019-Jun-18 13:49 174 0 gusting 6 28.9
2019-Jun-18 13:39 177 1 gusting 13 30.0
2019-Jun-18 13:29 176 1 gusting 6 30.6
2019-Jun-18 13:19 181 30.0
2019-Jun-18 13:09 180 8 gusting 17 30.0
2019-Jun-18 12:59 177 0 gusting 14 30.0
2019-Jun-18 12:49 179 1 gusting 14 30.0
2019-Jun-18 12:39 165 4 gusting 13 30.0
2019-Jun-18 12:29 179 1 gusting 13 30.0
2019-Jun-18 12:19 177 5 gusting 13 30.0
2019-Jun-18 12:09 178 4 gusting 12 30.0
2019-Jun-18 11:59 181 1 gusting 10 29.4
2019-Jun-18 11:49 178 2 gusting 18 29.4
2019-Jun-18 11:39 174 4 gusting 12 30.0
2019-Jun-18 11:29 178 0 gusting 10 30.6
2019-Jun-18 11:19 174 2 gusting 10 30.6
2019-Jun-18 11:09 172 0 gusting 7 30.6
2019-Jun-18 10:59 172 31.1
2019-Jun-18 10:49 171 3 gusting 10 30.6
2019-Jun-18 10:39 139 1 gusting 7 30.0
2019-Jun-18 10:29 127 1 gusting 6 30.6
2019-Jun-18 10:19 116 30.0
2019-Jun-18 10:09 115 30.0
2019-Jun-18 09:59 121 30.0
2019-Jun-18 09:49 120 30.0
2019-Jun-18 09:39 120 29.4
2019-Jun-18 09:29 120 29.4
2019-Jun-18 09:19 110 29.4
2019-Jun-18 09:09 110 29.4
2019-Jun-18 08:59 110 29.4
2019-Jun-18 08:49 110 29.4
2019-Jun-18 08:39 108 28.9
2019-Jun-18 08:29 079 27.8
2019-Jun-18 08:19 032 26.7
2019-Jun-18 08:09 032 26.7
2019-Jun-18 07:59 032 25.6
2019-Jun-18 07:49 032 25.0
2019-Jun-18 07:39 032 24.4
2019-Jun-18 07:29 032 23.9
2019-Jun-18 07:19 032 23.3
2019-Jun-18 07:09 032 23.3
2019-Jun-18 06:59 032 23.3
2019-Jun-18 06:49 032 22.8
2019-Jun-18 06:39 032 22.2
2019-Jun-18 06:29 032 22.2
2019-Jun-18 06:19 032 21.7
2019-Jun-18 06:09 032 21.7
2019-Jun-18 05:59 359 21.7
2019-Jun-18 05:49 359 21.7
2019-Jun-18 05:39 359 22.2
2019-Jun-18 05:29 359 21.7
2019-Jun-18 05:19 359 21.7
2019-Jun-18 05:09 359 21.7
2019-Jun-18 04:59 359 21.1
2019-Jun-18 04:49 359 21.1
2019-Jun-18 04:39 359 21.1
2019-Jun-18 04:29 359 21.1
2019-Jun-18 04:19 359 20.6
2019-Jun-18 04:09 359 20.6
2019-Jun-18 03:59 025 20.6
2019-Jun-18 03:49 025 21.1
2019-Jun-18 03:39 025 21.1
2019-Jun-18 03:29 025 21.1
2019-Jun-18 03:19 025 21.1
2019-Jun-18 03:09 025 21.1
2019-Jun-18 02:59 025 21.1
2019-Jun-18 02:49 025 21.1
2019-Jun-18 02:39 025 20.6
2019-Jun-18 02:29 025 20.6
2019-Jun-18 02:19 025 20.0
2019-Jun-18 02:09 025 20.0
2019-Jun-18 01:59 025 20.0
2019-Jun-18 01:49 025 4 gusting 6 20.0
2019-Jun-18 01:39 026 4 gusting 6 20.6
2019-Jun-18 01:29 027 20.6
2019-Jun-18 01:19 027 20.6
2019-Jun-18 01:09 027 0 gusting 4 20.6
2019-Jun-18 00:59 027 21.1
2019-Jun-18 00:49 027 21.7
2019-Jun-18 00:39 027 21.7
2019-Jun-18 00:29 027 21.7
2019-Jun-18 00:19 027 21.7
2019-Jun-18 00:09 027 21.7
2019-Jun-17 23:59 027 21.7
2019-Jun-17 23:49 027 21.7
2019-Jun-17 23:39 027 21.7
2019-Jun-17 23:29 027 21.7
2019-Jun-17 23:19 027 21.7
2019-Jun-17 23:09 027 21.7
2019-Jun-17 22:59 027 22.2
2019-Jun-17 22:49 027 22.2
2019-Jun-17 22:39 027 22.2
2019-Jun-17 22:29 027 22.2
2019-Jun-17 22:19 027 22.2
2019-Jun-17 22:10 027 0 gusting 6 22.2
2019-Jun-17 21:59 041 0 gusting 6 22.2
2019-Jun-17 21:49 074 22.8
2019-Jun-17 21:39 137 23.3
2019-Jun-17 21:29 139 23.3
2019-Jun-17 21:19 139 23.3
2019-Jun-17 21:09 139 23.3
2019-Jun-17 20:59 139 23.3
2019-Jun-17 20:49 139 23.9
2019-Jun-17 20:39 139 23.9
2019-Jun-17 20:29 139 23.9
2019-Jun-17 20:19 139 24.4
2019-Jun-17 20:09 139 24.4
2019-Jun-17 19:59 139 24.4
2019-Jun-17 19:49 139 24.4
2019-Jun-17 19:39 139 25.0
2019-Jun-17 19:29 139 25.0
2019-Jun-17 19:19 139 25.0
2019-Jun-17 19:09 139 25.0
2019-Jun-17 18:59 139 25.0
2019-Jun-17 18:49 139 25.6
2019-Jun-17 18:39 139 26.1
2019-Jun-17 18:29 138 26.7